Tracking 27126 objects as of 30-Mar-2023
HD Live streaming from Space Station
objects crossing your sky now

KSF2-D

Track KSF2-D now!
10-day predictions


NORAD ID: 52190
Int'l Code: 2022-033AK
Perigee: 457.1 km
Apogee: 467.3 km
Inclination: 97.3 °
Period: 93.7 minutes
Semi major axis: 6833 km
RCS: Unknown
Launch date: April 1, 2022
Source: Luxembourg (LUXE)
Launch site: AIR FORCE EASTERN TEST RANGE (AFETR)
Your satellite tracking list
Your tracking list is empty




NASA's NSSDC Master Catalog

Two Line Element Set (TLE):
1 52190U 22033AK  23088.88790950  .00050653  00000-0  13940-2 0  9992
2 52190  97.3496 171.9174 0007440  91.8025  19.7791 15.36979401 55253
Source of the keplerian elements: AFSPC